Location: New Town
(33.2710°N, 90.7534°W)
Time: 02:41:03
(UTC+00:00)

Vanguard 1 Rocket - Visible Passes

Search period start: 12 May 2021 00:00
Search period end: 22 May 2021 00:00
Orbit: 652 x 4224 km, 34.3° (Epoch: 10 May)

Date Brightness Start Highest point End Pass type
(mag) Time Alt. Az. Time Alt. Az. Time Alt. Az.
12 May 11.7 07:41:48 10° SE 07:44:58 10° SE 07:48:07 10° ESE visible
12 May 11.2 09:52:51 10° SSW 10:15:31 39° SE 10:33:34 10° E visible
13 May 11.5 08:42:20 10° S 09:01:13 27° SE 09:18:37 10° E visible
14 May 11.5 07:35:10 10° SSE 07:47:17 16° SE 07:59:42 10° E visible
14 May 11.1 09:53:52 10° SSW 10:17:46 47° SE 10:37:00 10° ENE visible
15 May 11.3 08:45:14 15° S 09:03:19 34° SE 09:22:41 10° E visible
16 May 11.3 07:37:58 16° SSE 07:49:21 22° SE 08:05:47 10° E visible
16 May 11.0 09:55:16 10° SW 10:19:57 55° SE 10:40:11 10° ENE visible
17 May 11.6 06:31:57 10° SE 06:35:53 11° SE 06:39:56 10° ESE visible
17 May 11.1 08:47:56 19° SSW 09:05:19 42° SE 09:26:15 10° ENE visible
18 May 11.1 07:40:33 21° SSE 07:51:16 28° SE 08:10:24 10° E visible
18 May 10.9 09:57:49 12° SW 10:22:09 63° SSE 10:43:13 10° ENE visible
19 May 11.4 06:33:07 15° SE 06:37:52 16° SE 06:50:27 10° E visible
19 May 11.0 08:50:22 23° SSW 09:07:17 49° SE 09:29:29 10° ENE visible
20 May 10.9 07:42:54 27° S 07:53:04 35° SE 08:14:15 10° E visible
20 May 10.8 10:00:09 12° SW 10:24:24 70° SSE 10:46:10 10° ENE visible
21 May 11.2 06:35:21 21° SE 06:39:40 22° SE 06:56:18 10° E visible
21 May 10.8 08:52:36 25° SSW 09:09:16 57° SE 09:32:31 10° ENE visible
